Weather History for Ft Pierce, FL

Change the Weather History Date:

Monday, August 26, 2013

  Actual Average Record
Temperature  
Mean Temperature 82 °F -  
Max Temperature 89 °F 90 °F 95 °F (1944)
Min Temperature 75 °F 73 °F 68 °F (1993)
Cooling Degree Days 16    
Growing Degree Days 32 (Base 50)    
Moisture  
Dew Point 72 °F    
Average Humidity 76    
Maximum Humidity 94    
Minimum Humidity 55    
Precipitation  
Precipitation 0.00 in - - ()
Sea Level Pressure  
Sea Level Pressure 30.07 in    
Wind  
Wind Speed 3 mph (ENE)    
Max Wind Speed 15 mph    
Max Gust Speed 18 mph    
Visibility 10 miles    
Events      
Averages and records for this station are not official NWS values.
T = Trace of Precipitation, MM = Missing Value Source: NWS Daily Summary

Daily Weather History Graph

Daily Weather History Graph

Search for Another Location

Airport:

Trip Planner

Search our weather history database for the weather conditions in past years. The results will help you decide how hot, cold, wet, or windy it might be!

Date:

Astronomy

Aug. 26, 2013 Rise Set
Actual Time 6:57 AM EDT 7:48 PM EDT
Civil Twilight 6:33 AM EDT 8:12 PM EDT
Nautical Twilight 6:05 AM EDT 8:40 PM EDT
Astronomical Twilight 5:36 AM EDT 9:09 PM EDT
Moon 11:34 PM EDT (8/26) 12:21 PM EDT (8/26)
Length of Visible Light 13h 38m
Length of Day
12h 50m
Waning Gibbous, 67% of the Moon is Illuminated
Aug 26
Waning Gibbous
Aug 28
Last Quarter
Sep 5
New
Sep 12
First Quarter
Sep 19
Full

Hourly Weather History & Observations

Time (EDT) Temp. Heat Index Dew Point Humidity Pressure Visibility Wind Dir Wind Speed Gust Speed Precip Events Conditions
12:53 AM 75.9 °F - 72.0 °F 87% 30.12 in 10.0 mi Calm Calm - N/A   Partly Cloudy
1:53 AM 75.0 °F - 72.0 °F 90% 30.10 in 10.0 mi Calm Calm - N/A   Clear
2:53 AM 75.0 °F - 73.0 °F 94% 30.09 in 10.0 mi West 3.5 mph - N/A   Partly Cloudy
3:53 AM 75.0 °F - 72.0 °F 90% 30.08 in 9.0 mi Calm Calm - N/A   Mostly Cloudy
4:53 AM 75.9 °F - 73.0 °F 91% 30.07 in 10.0 mi Calm Calm - N/A   Scattered Clouds
5:53 AM 75.0 °F - 72.0 °F 90% 30.08 in 10.0 mi NW 3.5 mph - N/A   Clear
6:53 AM 75.9 °F - 73.0 °F 91% 30.08 in 9.0 mi Calm Calm - N/A   Clear
7:53 AM 77.0 °F - 73.9 °F 90% 30.09 in 8.0 mi Calm Calm - N/A   Clear
8:53 AM 82.0 °F 89.4 °F 75.9 °F 82% 30.10 in 10.0 mi NW 3.5 mph - N/A   Partly Cloudy
9:45 AM 84.2 °F 89.6 °F 71.6 °F 66% 30.10 in 10.0 mi Calm Calm - N/A   Mostly Cloudy
9:53 AM 86.0 °F 92.2 °F 72.0 °F 63% 30.10 in 10.0 mi Calm Calm - N/A   Scattered Clouds
10:53 AM 87.1 °F 92.8 °F 71.1 °F 59% 30.11 in 10.0 mi Calm Calm - N/A   Scattered Clouds
11:53 AM 88.0 °F 93.8 °F 71.1 °F 57% 30.10 in 10.0 mi ENE 9.2 mph - N/A   Scattered Clouds
12:53 PM 88.0 °F 92.9 °F 70.0 °F 55% 30.09 in 10.0 mi ENE 10.4 mph - N/A   Clear
1:53 PM 88.0 °F 93.8 °F 71.1 °F 57% 30.06 in 10.0 mi East 11.5 mph - N/A   Clear
2:53 PM 88.0 °F 95.6 °F 73.0 °F 61% 30.06 in 10.0 mi NE 9.2 mph - N/A   Clear
3:53 PM 87.1 °F 94.5 °F 73.0 °F 63% 30.04 in 10.0 mi NE 11.5 mph 18.4 mph N/A   Partly Cloudy
4:53 PM 86.0 °F 91.5 °F 71.1 °F 61% 30.03 in 10.0 mi East 15.0 mph - N/A   Scattered Clouds
5:53 PM 84.9 °F 91.4 °F 73.0 °F 67% 30.04 in 10.0 mi ESE 11.5 mph - N/A   Scattered Clouds
6:53 PM 84.0 °F 89.6 °F 72.0 °F 67% 30.03 in 10.0 mi ESE 11.5 mph - N/A   Partly Cloudy
7:53 PM 82.0 °F 86.7 °F 72.0 °F 71% 30.05 in 10.0 mi ESE 9.2 mph - N/A   Clear
8:53 PM 79.0 °F - 72.0 °F 79% 30.05 in 10.0 mi Calm Calm - N/A   Clear
9:53 PM 75.9 °F - 71.1 °F 85% 30.06 in 10.0 mi Calm Calm - N/A   Clear
10:53 PM 75.9 °F - 72.0 °F 87% 30.06 in 10.0 mi Calm Calm - N/A   Clear
11:53 PM 75.0 °F - 72.0 °F 90% 30.06 in 10.0 mi NW 3.5 mph - N/A   Scattered Clouds